[Iaude] MPEC V89: 2023 VR2 [a=2.70,e=0.63,i=3.6,H=25.3]
    mpec at marsden.cfa.harvard.edu 
    mpec at marsden.cfa.harvard.edu
       
    Tue Nov  7 08:01:14 EST 2023
    
    
  
M.P.E.C. 2023-V89                              Issued 2023 November 7, 12:59 UT
     The Minor Planet Electronic Circulars contain information on unusual
         minor planets, routine data on comets and natural satellites,
         and occasional editorial announcements.  They are published
    on behalf of Division F of the International Astronomical Union by the
          Minor Planet Center, Smithsonian Astrophysical Observatory,
                          Cambridge, MA 02138, U.S.A.
			  
             Prepared using the Tamkin Foundation Computer Network
                              MPC at CFA.HARVARD.EDU
            URL https://www.minorplanetcenter.net/    ISSN 1523-6714
                                    2023 VR2                                    
Observations:
     K23V02R*1C2023 11 05.45653105 35 11.497+11 48 18.58         20.32GVEV089G96
     K23V02R 1C2023 11 05.46167905 35 14.575+11 48 07.09         19.92GVEV089G96
     K23V02R 1C2023 11 05.47195905 35 20.699+11 47 44.23               VEV089G96
     K23V02R KC2023 11 05.51366905 35 45.650+11 46 11.32         20.43GVEV089I52
     K23V02R KC2023 11 05.51460105 35 46.230+11 46 09.41         19.59GVEV089I52
     K23V02R KC2023 11 05.51553305 35 46.774+11 46 07.18         19.88GVEV089I52
     K23V02R IC2023 11 06.10845605 41 59.64 +11 25 35.1          20.6 GVEV089L01
     K23V02R KC2023 11 06.11344505 42 02.33 +11 25 25.0          20.0 GVEV089L01
     K23V02R KC2023 11 06.11601405 42 03.65 +11 25 20.1          20.2 GVEV089L01
     K23V02R KC2023 11 06.11858305 42 05.08 +11 25 14.6          20.1 GVEV089L01
     K23V02R mC2023 11 06.33124105 44 14.570+11 19 06.50         20.18GVEV089I52
     K23V02R mC2023 11 06.33906505 44 18.490+11 18 52.30         19.90GVEV089I52
     K23V02R mC2023 11 06.34722505 44 22.470+11 18 37.50               VEV089I52
     K23V02R KB2023 11 07.32517 05 52 35.88 +10 50 19.2          20.1 GVEV089734
     K23V02R KB2023 11 07.33267 05 52 38.94 +10 50 07.8          19.4 GVEV089734
     K23V02R KB2023 11 07.34017 05 52 41.98 +10 49 55.9          19.8 GVEV089734
     K23V02R mC2023 11 07.34808205 52 47.698+10 49 58.98         20.31GVEV089I52
     K23V02R mC2023 11 07.34868505 52 47.932+10 49 57.65         20.67GVEV089I52
     K23V02R mC2023 11 07.35158905 52 49.094+10 49 53.54         20.32GVEV089I52
Observer details:
734 Farpoint Observatory, Eskridge.  Observer .
G96 Mt. Lemmon Survey.  Observer J. B. Fazekas.  Measurers E. C. Beshore, D.
    Fay, J. B. Fazekas, D. C. Fuls, A. R. Gibbs, A. D. Grauer, H. Groeller, J.
    K. Hogan, R. A. Kowalski, S. M. Larson, G. J. Leonard, D. Rankin, R. L.
    Seaman, F. C. Shelly, K. W. Wierzchos.  1.5-m reflector + 10K CCD.
I52 Steward Observatory, Mt. Lemmon Station.  Observers R. A. Kowalski, H.
    Groeller.  Measurers E. C. Beshore, D. Fay, J. B. Fazekas, D. C. Fuls, A.
    R. Gibbs, A. D. Grauer, H. Groeller, J. K. Hogan, R. A. Kowalski, S. M.
    Larson, G. J. Leonard, D. Rankin, R. L. Seaman, F. C. Shelly, K. W.
    Wierzchos.  1.0-m prime focus + CCD.
L01 Visnjan Observatory, Tican.  Observer K. Korlevic.  1.0-m f/2.9 reflector
    + CCD.
Orbital elements:
2023 VR2                                                 Earth MOID = 0.0178 AU
Epoch 2023 Sept. 13.0 TT = JDT 2460200.5                Veres                   
M 350.73946              (2000.0)            P               Q                  
n   0.22184340     Peri.  173.22204     +0.86893058     -0.49349682             
a   2.7025373      Node   216.42699     +0.45106121     +0.82095127             
e   0.6257162      Incl.    3.63917     +0.20372390     +0.28722796             
P   4.44           H   25.34          G   0.15           U   8                  
Residuals in seconds of arc
231105 G96  0.3+  0.2+    231106 L01  0.2+  0.2-    231107 734  0.1+  0.2+
231105 G96  0.3+  0.1+    231106 L01  0.3-  0.0     231107 734  0.3+  0.1-
231105 G96  0.1+  0.1-    231106 L01  0.8+  0.5-    231107 I52  0.1+  0.2+
231105 I52  0.1-  0.0     231106 I52  0.0   0.1+    231107 I52  0.0   0.2-
231105 I52  0.2+  0.2+    231106 I52  0.2+  0.4-    231107 I52  0.1-  0.1+
231105 I52  0.1-  0.0     231106 I52  0.9-  0.7-
231106 L01  0.6-  0.1+    231107 734  0.1-  0.1+
Ephemeris:
2023 VR2                 a,e,i = 2.70, 0.63, 4                   q = 1.0115
Date    TT    R. A. (2000) Decl.     Delta      r    Elong.  Phase     V
2023 10 08    20 12 19.9 -01 31 17   0.09719 1.0364   109.8    65.1    22.7
...
2023 10 23    21 46 24.1 +05 40 15   0.03236 1.0118   120.1    58.3    20.0
...
2023 10 31    03 31 03.6 +16 21 53   0.02311 1.0150   162.3    17.3    18.1
...
2023 11 06    05 40 57.1 +11 30 55   0.04544 1.0249   136.4    41.8    20.3
2023 11 07    05 49 57.9 +11 00 35   0.04980 1.0271   135.1    42.9    20.5
2023 11 08    05 57 23.8 +10 34 40   0.05424 1.0295   134.2    43.6    20.8
...
2023 11 14    06 22 51.3 +09 00 10   0.08171 1.0474   133.4    43.3    21.7
...
2023 11 22    06 34 22.3 +08 17 35   0.1198  1.0798   138.0    37.7    22.4
...
2023 12 07    06 34 15.3 +08 41 04   0.1967  1.1623   151.8    23.6    23.2
M. P. C. Staff               (C) Copyright 2023 MPC           M.P.E.C. 2023-V89
    
    
More information about the Iaude
mailing list